Regional Weather Roundup
Issued by NWS Sterling, VA

Home | Current Version | Previous Version | Graphics & Text | Print | Product List | Glossary On
Versions: 1 2 3 4 5 6 7 8 9 10 11 12 13 14 15 16 17 18 19 20 21 22 23 24 25 26 27
000
ASUS41 KLWX 261910
RWRLWX

REGIONAL WEATHER ROUNDUP
NATIONAL WEATHER SERVICE BALTIMORE MD/WASHINGTON DC
300 PM EDT TUE JUL 26 2016

Note: "FAIR" indicates few or no clouds below 12,000 feet
with no significant weather and/or obstructions to visibility.
 TC=TEMPERATURE CELSIUS

 * =Non NWS site. Station does not report precipitation (e.g. rain,
    snow, etc.), thunder, or fog.

DCZ001-MDZ009-015-VAZ040>042-051-053>054-262000-
WASHINGTON METRO

CITY           SKY/WX    TMP DP  RH WIND       PRES   REMARKS
WASHINGTON NAT PTSUNNY   96  70  42 N9        29.94F HX 102
DULLES         PTSUNNY   93  68  43 W12       29.96F HX  97
ANDREWS AFB    MOSUNNY   92  69  46 NW10      29.94F HX  97
FT BELVOIR     FAIR      96  69  41 W10       29.93F HX 101
QUANTICO       PTSUNNY   93  73  52 S3        29.94F HX 102
COLLEGE PARK*  FAIR      91  70  49 W7        29.93F HX  97
LEESBURG*      FAIR      91  75  59 W3G18     29.97F HX 102
MANASSAS*      SUNNY     93  70  46 N6        29.95F HX  99
GAITHERSBURG*  CLOUDY    88  70  55 NW12      30.00F HX  92

$$

MDZ006>007-011-014-262000-
BALTIMORE METRO

CITY           SKY/WX    TMP DP  RH WIND       PRES   REMARKS
BWI AIRPORT    CLOUDY    91  68  46 NW6       29.93F HX  95
MD SCIENCE CTR   N/A     91  66  43 MISG      29.93F HX  93
MARTIN STATE   PTSUNNY   90  75  62 SE5       29.94F HX 100
ANNAPOLIS      MOSUNNY   91  72  53 NW5       29.92F HX  98
FORT MEADE*    CLOUDY    86  75  70 NW7       29.96F HX  95

$$

MDZ012-015-019>023-262000-
MARYLAND EASTERN SHORE

CITY           SKY/WX    TMP DP  RH WIND       PRES   REMARKS
OCEAN CITY     MOSUNNY   84  74  71 VRB5      29.94F HX  91
SALISBURY      MOSUNNY   92  75  57 VRB3      29.93S HX 103
BAY BRIDGE AP* MOSUNNY   90  75  62 SW6       29.93F HX 100
CAMBRIDGE*     MOSUNNY   90  73  58 W5        29.93S HX  98
EASTON*        PTSUNNY   93  77  59 W7        29.97F HX 107

$$

MDZ017>025-262000-
SOUTHERN MARYLAND

CITY           SKY/WX    TMP DP  RH WIND       PRES   REMARKS
PATUXENT RIVER PTSUNNY   87  73  62 S7        29.93F THUNDER HX  94
ST INIGOES     CLOUDY    92  76  59 NE8       29.92F THUNDER HX 104
LEONARDTOWN*     N/A     91  73  55 SE8       29.95F HX 100

$$

MDZ003>005-262000-
NORTH CENTRAL MARYLAND

CITY           SKY/WX    TMP DP  RH WIND       PRES   REMARKS
FREDERICK*     SUNNY     90  54  29 NW8       29.99S
HAGERSTOWN APT CLOUDY    89  69  51 W10       29.97F HX  93

$$

MDZ501>502-262000-
WESTERN MARYLAND

CITY           SKY/WX    TMP DP  RH WIND       PRES   REMARKS
OAKLAND*       CLOUDY    75  66  73 NW5       30.13F
CUMBERLAND*    CLOUDY    90  63  40 W12       30.02F HX  90

$$

VAZ025>031-262000-
SHENANDOAH VALLEY

CITY           SKY/WX    TMP DP  RH WIND       PRES   REMARKS
WINCHESTER*    FAIR      86  70  58 NW5       29.98F HX  90
FRONT ROYAL*   FAIR      90  70  51 NW6       29.97  HX  95
LURAY*         FAIR      93  70  46 SW3       29.98F HX  99
NEW MARKET*    FAIR     N/A N/A N/A CALM      29.95F
STAUNTON*      PTSUNNY   89  71  56 E3        30.01F HX  95
WAYNESBORO*    MOCLDY    89  69  51 N7        30.01F HX  93

$$

WVZ021-048>050-054>055-262000-
EASTERN WEST VIRGINIA PANHANDLE

CITY           SKY/WX    TMP DP  RH WIND       PRES   REMARKS
MARTINSBURG    FAIR      89  66  46 NW10      29.97F HX  91
PETERSBURG*    CLOUDY    92  69  48 E7        29.98F HX  97

$$

VAZ036>039-050-262000-
CENTRAL FOOTHILLS

CITY           SKY/WX    TMP DP  RH WIND       PRES   REMARKS
CHARLOTTESVILL FAIR      97  69  40 N9        29.95F HX 103
CULPEPER*      FAIR      94  76  55 CALM      29.96S HX 107
ORANGE*        NOT AVBL
GORDONSVILLE*  MOCLDY    94  75  52 CALM      29.95F HX 105
WARRENTON*     FAIR      93  64  38 N3        29.95F HX  95

$$

VAZ055>057-262000-
NORTH AND CENTRAL PIEDMONT

CITY           SKY/WX    TMP DP  RH WIND       PRES   REMARKS
FREDERICKSBRG*   N/A     95  73  48 N8        29.93F HX 104
STAFFORD*      FAIR      95  67  40 CALM      29.98F HX  99

$$

NCZ024-NYZ072-PAZ021-071-VAZ022-071-262000-
OTHER REGIONAL OBSERVATIONS

CITY           SKY/WX    TMP DP  RH WIND       PRES   REMARKS
NEW YORK CITY  PTSUNNY   88  65  46 VRB7      29.91R HX  90
PHILADELPHIA   PTSUNNY   91  67  44 NW15G21   29.91F HX  94
PITTSBURGH     PTSUNNY   86  61  42 NW6       30.03F
ROANOKE        FAIR      95  69  42 W9        30.02F HX 100
RICHMOND       PTSUNNY   94  74  52 N5        29.93F HX 104
RALEIGH        PTSUNNY   95  76  53 SW12      29.97F HX 108

$$

ANZ530>537-262000-
MARINE OBSERVATIONS

STATION/POSITION TIME  TEMP    WIND        PRES
                       AIR SEA DIR/SP/G
                 (UTC) (F)     (DEG/KT/KT) (MB)
THOMAS PT LIGHT  1900   85 85  160/  8/  8 1014.7F
BALT KEY BRIDGE  1848   88     170/  1/  2 1013.4F
COVE POINT       1848   86      50/  5/  6 1014.2F
LEWISETTA        1848   86 88  110/  8/ 10 1013.3F
SOLOMONS ISLAND  1842   86 85  100/  8/  9   N/A
PINEY POINT      1848          170/  5/  6   N/A

$$





USA.gov is the U.S. government's official web portal to all federal, state and local government web resources and services.